#timestamp,LO_Frequency,Hit 
1505116815.8,286046991.7,N
1505116835.7,286046993.4,N
1505116855.5,286046994.4,N
1505116875.3,286046992.3,N
1505116895.1,286046993.0,N
1505116915.9,286046988.9,P
1505116935.7,286046992.8,N
1505116955.6,286046994.6,N
1505116975.4,286046993.9,N
1505116995.2,286046994.6,N
1505117015.0,286046993.6,N
1505117015.9,286046993.6,N
1505117035.8,286046995.7,N
1505117055.6,286046994.7,N
1505117075.5,286046992.2,P
1505117095.3,286046999.3,N
1505117115.1,286046998.4,N
1505117135.8,286046997.3,N
1505117155.7,286046994.9,N
1505117175.5,286046999.2,N
1505117195.3,286046995.3,N
1505117215.2,286046996.2,N
1505117235.9,286046999.6,N
1505117255.7,286046997.5,N
1505117275.6,286046995.9,N
1505117295.4,286046993.5,N
1505117315.2,286046994.6,N
1505117335.1,286046994.4,N
1505117336.0,286046994.4,N
1505117355.8,286046992.2,P
1505117375.6,286046999.3,N
1505117395.5,286046996.9,N
1505117415.3,286046996.8,N
1505117435.1,286046997.0,N
1505117455.9,286046997.3,N
1505117475.7,286046997.3,N
1505117495.5,286046996.9,N
1505117515.3,286046996.7,N
1505117535.2,286046996.2,N
1505117555.0,286046996.1,N
1505117555.9,286046996.1,N
1505117575.7,286046997.6,N
1505117595.6,286046999.3,N
1505117615.4,286046997.4,N
1505117635.2,286046997.5,N
1505117655.1,286046996.7,N
1505117656.0,286046996.7,N
1505117675.8,286047000.9,N
1505117695.6,286046997.0,N
1505117715.5,286046997.7,N
1505117735.3,286046999.4,N
1505117755.1,286047000.3,N
1505117775.9,286046997.7,N
1505117795.7,286046995.0,P
1505117815.5,286046999.5,N
1505117835.4,286047000.8,N
1505117855.2,286046998.2,N
1505117875.0,286046997.2,N
1505117875.9,286046997.2,N
1505117895.8,286046995.4,N
1505117915.6,286046997.3,N
1505117935.4,286046996.5,N
1505117955.2,286046999.3,N
1505117975.1,286046999.6,N
1505117976.0,286046999.6,N
1505117995.8,286046998.3,N
1505118015.6,286046998.1,N
1505118035.5,286046995.5,N
1505118055.3,286046996.4,N
1505118075.1,286046996.4,N
1505118095.9,286046992.4,P
1505118115.7,286046994.1,N
1505118135.5,286046996.3,N
1505118155.4,286046994.5,N
1505118175.2,286046992.3,P
1505118195.0,286046998.9,N
1505118196.0,286046998.9,N
1505118215.8,286046997.5,N
1505118235.6,286046995.4,N
1505118255.4,286046997.3,N
1505118275.3,286046998.0,N
1505118295.1,286046997.9,N
1505118315.8,286046995.6,N
1505118335.7,286046996.2,N
1505118355.5,286046993.3,P
1505118375.3,286046999.3,N
1505118395.2,286047001.1,N
1505118415.9,286046997.6,N
1505118435.7,286046997.8,N
1505118455.6,286046998.8,N
1505118475.4,286046998.5,N
1505118495.2,286046993.9,N
1505118515.1,286046994.5,N
1505118516.0,286046994.5,N
1505118535.8,286046992.0,P
1505118555.6,286046993.7,N
1505118575.5,286046996.1,N
1505118595.3,286046995.4,N
1505118615.1,286046999.4,N
1505118635.9,286046995.6,N
1505118655.7,286046997.5,N
1505118675.5,286046996.7,N
1505118695.3,286046997.4,N
1505118715.2,286046997.2,N
1505118735.0,286046996.3,N
1505118735.9,286046996.3,N
1505118755.7,286046995.9,N
1505118775.6,286046995.6,N
1505118795.4,286046995.6,N
1505118815.2,286046996.0,N
1505118835.1,286046995.8,N
1505118836.0,286046995.8,N
1505118855.8,286046993.7,P
1505118875.6,286047001.2,N
1505118895.5,286046999.2,N
1505118915.3,286046996.1,N
1505118935.1,286046992.6,N
1505118955.9,286046990.4,P
1505118975.7,286046993.6,N
1505118995.5,286046997.8,N
1505119015.4,286046999.1,N
1505119035.2,286046997.9,N
1505119055.0,286046994.5,N
1505119055.9,286046994.5,N
1505119075.8,286046992.2,N
1505119095.6,286046994.4,N
1505119115.4,286046993.7,N
1505119135.3,286046997.3,N
1505119155.1,286046993.8,N
1505119156.0,286046993.8,N
1505119175.8,286046994.4,N
1505119195.7,286046990.5,P
1505119215.5,286046995.9,N
1505119235.3,286046994.0,N
1505119255.2,286046992.5,P
1505119275.9,286047001.3,N
1505119295.7,286047003.4,N
1505119315.6,286047002.9,N
1505119335.4,286047006.3,N
1505119355.2,286047005.9,N
1505119375.1,286047007.5,N
1505119376.0,286047007.5,N
1505119395.8,286047005.7,N
1505119415.6,286047005.7,N
1505119435.5,286047001.3,N
1505119455.3,286047005.2,N
1505119475.1,286047005.1,N
1505119495.8,286047004.4,N
1505119515.7,286047003.9,N
1505119535.5,286047004.3,N
1505119555.3,286047001.0,N
1505119575.2,286046998.5,N
1505119595.9,286047002.4,N
1505119615.7,286047001.4,N
1505119635.6,286046999.8,N
1505119655.4,286047002.0,N
1505119675.2,286047003.1,N
1505119695.1,286047005.6,N
1505119696.0,286047005.6,N
1505119715.8,286047003.7,N
1505119735.6,286047003.4,N
1505119755.4,286047003.4,N
1505119775.3,286047005.5,N
1505119795.1,286047004.3,N
1505119815.8,286047003.7,N
1505119835.7,286047002.9,N
1505119855.5,286047001.4,N
1505119875.3,286047000.8,N
1505119895.2,286047000.1,N
1505119915.9,286047000.9,N
1505119935.7,286047000.3,N
1505119955.6,286047002.0,N
1505119975.4,286046998.1,N
1505119995.2,286046998.2,N
1505120015.0,286047000.5,N
1505120016.0,286047000.5,N
1505120035.8,286047000.0,N
1505120055.6,286047000.7,N
1505120075.4,286046997.9,N
1505120095.3,286046996.1,N
1505120115.1,286046997.2,N
1505120135.8,286046999.4,N
1505120155.7,286046999.5,N
1505120175.5,286046999.6,N
1505120195.3,286046998.5,N
1505120215.2,286047001.2,N
1505120235.9,286046999.7,N
1505120255.7,286047001.9,N
1505120275.6,286046999.3,N
1505120295.4,286046999.0,N
1505120315.2,286046996.5,N
1505120335.1,286046994.6,N
1505120336.0,286046994.6,N
1505120355.8,286046993.1,P
1505120375.6,286046990.1,P
1505120395.5,286046995.6,N
